Weather History for Perry, FL

Change the Weather History Date:

Monday, April 22, 2013

  Actual Average (KCTY) Record (KCTY)
Temperature  
Mean Temperature 62 °F 68 °F  
Max Temperature 68 °F 81 °F 88 °F (2011)
Min Temperature 55 °F 55 °F 46 °F (2008)
Degree Days  
Heating Degree Days 4 1  
Month to date heating degree days 43  
Since 1 July heating degree days 1298  
Cooling Degree Days 0 4  
Month to date cooling degree days 70  
Year to date cooling degree days 144  
Growing Degree Days 12 (Base 50)    
Moisture  
Dew Point 57 °F    
Average Humidity 83    
Maximum Humidity 93    
Minimum Humidity 65    
Precipitation  
Precipitation 0.05 in 0.07 in 0.70 in (2006)
Month to date precipitation 2.50  
Year to date precipitation 14.02  
Sea Level Pressure  
Sea Level Pressure 30.13 in    
Wind  
Wind Speed 6 mph (NE)    
Max Wind Speed 13 mph    
Max Gust Speed 21 mph    
Visibility 9 miles    
Events      
T = Trace of Precipitation, MM = Missing Value Source: NWS Daily Summary

Daily Weather History Graph

Daily Weather History Graph

Search for Another Location

Airport:

Trip Planner

Search our weather history database for the weather conditions in past years. The results will help you decide how hot, cold, wet, or windy it might be!

Date:

Astronomy

Apr. 22, 2013 Rise Set
Actual Time 6:59 AM EDT 8:06 PM EDT
Civil Twilight 6:34 AM EDT 8:31 PM EDT
Nautical Twilight 6:05 AM EDT 9:00 PM EDT
Astronomical Twilight 5:34 AM EDT 9:31 PM EDT
Moon 5:06 PM EDT (4/22) 4:39 AM EDT (4/22)
Length of Visible Light 13h 56m
Length of Day
13h 06m
Waxing Gibbous, 87% of the Moon is Illuminated
Apr 22
Waxing Gibbous
Apr 25
Full
May 2
Last Quarter
May 9
New
May 18
First Quarter

Hourly Weather History & Observations

Time (EDT) Temp. Dew Point Humidity Pressure Visibility Wind Dir Wind Speed Gust Speed Precip Events Conditions
12:15 AM 60.8 °F - N/A% 30.16 in 7.0 mi NE 6.9 mph - N/A   Overcast
12:35 AM 60.8 °F - N/A% 30.16 in 7.0 mi NE 4.6 mph - N/A   Overcast
12:53 AM 61.0 °F 57.9 °F 90% 30.14 in - ENE 6.9 mph - N/A   Unknown
12:55 AM 60.8 °F - N/A% 30.15 in 10.0 mi ENE 5.8 mph - N/A   Overcast
1:15 AM 60.8 °F - N/A% 30.14 in 10.0 mi NE 5.8 mph - N/A   Overcast
1:35 AM 60.8 °F - N/A% 30.14 in 10.0 mi NE 3.5 mph - N/A   Overcast
1:53 AM 61.0 °F 57.9 °F 90% 30.12 in - NE 4.6 mph - 0.02 in   Unknown
1:55 AM 60.8 °F - N/A% 30.13 in 10.0 mi NNE 5.8 mph - N/A   Overcast
2:15 AM 60.8 °F - N/A% 30.13 in 10.0 mi ENE 3.5 mph - N/A   Overcast
2:35 AM 60.8 °F - N/A% 30.12 in 10.0 mi NE 4.6 mph - N/A   Overcast
2:53 AM 61.0 °F 57.9 °F 90% 30.11 in - NE 4.6 mph - 0.02 in   Unknown
2:55 AM 60.8 °F - N/A% 30.12 in 10.0 mi NE 4.6 mph - N/A   Overcast
3:15 AM 60.8 °F - N/A% 30.11 in 10.0 mi NNE 3.5 mph - N/A   Overcast
3:35 AM 60.8 °F - N/A% 30.11 in 10.0 mi NNE 8.1 mph - N/A   Overcast
3:53 AM 61.0 °F 57.9 °F 90% 30.09 in - NNE 4.6 mph - N/A   Unknown
4:15 AM 60.8 °F - N/A% 30.10 in 10.0 mi North 3.5 mph - N/A   Overcast
4:35 AM 60.8 °F - N/A% 30.10 in 10.0 mi NNE 4.6 mph - N/A   Overcast
4:53 AM 60.1 °F 57.9 °F 93% 30.09 in - NNE 5.8 mph - N/A   Unknown
4:55 AM 60.8 °F - N/A% 30.10 in 10.0 mi NNE 5.8 mph - N/A   Overcast
5:15 AM 60.8 °F - N/A% 30.10 in 10.0 mi NNE 5.8 mph - N/A   Overcast
5:35 AM 60.8 °F - N/A% 30.10 in 10.0 mi NNE 8.1 mph - N/A   Overcast
5:53 AM 60.1 °F 57.9 °F 93% 30.09 in - NNE 5.8 mph - N/A   Unknown
5:55 AM 60.8 °F - N/A% 30.10 in 10.0 mi NNE 5.8 mph - N/A   Overcast
6:15 AM 60.8 °F - N/A% 30.10 in 10.0 mi NE 6.9 mph - N/A   Overcast
6:35 AM 60.8 °F - N/A% 30.10 in 10.0 mi NNE 6.9 mph - N/A   Overcast
6:53 AM 60.1 °F 57.0 °F 90% 30.10 in - NE 4.6 mph - N/A   Unknown
6:55 AM 60.8 °F - N/A% 30.11 in 10.0 mi NE 5.8 mph - N/A   Overcast
7:15 AM 60.8 °F - N/A% 30.12 in 7.0 mi NNE 4.6 mph - N/A   Overcast
7:35 AM 60.8 °F - N/A% 30.13 in 7.0 mi NE 6.9 mph - N/A   Overcast
7:53 AM 60.1 °F 57.0 °F 90% 30.12 in - NE 8.1 mph - N/A   Unknown
7:55 AM 60.8 °F - N/A% 30.13 in 5.0 mi NNE 6.9 mph - N/A   Haze
8:15 AM 60.8 °F - N/A% 30.14 in 4.0 mi NE 6.9 mph - N/A   Haze
8:35 AM 60.8 °F - N/A% 30.14 in 5.0 mi NNE 8.1 mph 16.1 mph N/A   Haze
8:53 AM 60.1 °F 57.0 °F 90% 30.13 in - NE 8.1 mph - N/A   Unknown
8:55 AM 60.8 °F - N/A% 30.14 in 5.0 mi NE 6.9 mph - N/A   Haze
9:15 AM 60.8 °F - N/A% 30.15 in 5.0 mi NE 4.6 mph - N/A   Haze
9:35 AM 60.8 °F - N/A% 30.15 in 5.0 mi NNE 5.8 mph - N/A   Haze
9:53 AM 60.1 °F 57.0 °F 90% 30.15 in - NE 10.4 mph 20.7 mph N/A   Unknown
9:55 AM 60.8 °F - N/A% 30.16 in 5.0 mi NE 9.2 mph 18.4 mph N/A   Haze
10:15 AM 60.8 °F - N/A% 30.16 in 5.0 mi NE 9.2 mph - N/A   Haze
10:35 AM 60.8 °F - N/A% 30.16 in 7.0 mi NNE 9.2 mph - N/A   Overcast
10:53 AM 60.1 °F 55.9 °F 86% 30.16 in - NE 11.5 mph 19.6 mph N/A   Unknown
10:55 AM 60.8 °F - N/A% 30.17 in 7.0 mi NE 8.1 mph 16.1 mph N/A   Overcast
11:15 AM 60.8 °F - N/A% 30.17 in 10.0 mi NE 11.5 mph 19.6 mph N/A   Overcast
11:35 AM 62.6 °F - N/A% 30.18 in 10.0 mi ENE 9.2 mph - N/A   Overcast
11:53 AM 62.1 °F 55.9 °F 80% 30.17 in - NNE 12.7 mph 17.3 mph N/A   Unknown
11:55 AM 62.6 °F - N/A% 30.18 in 10.0 mi NNE 12.7 mph - N/A   Overcast
12:15 PM 62.6 °F - N/A% 30.18 in 10.0 mi NE 9.2 mph - N/A   Overcast
12:35 PM 62.6 °F - N/A% 30.17 in 10.0 mi NE 9.2 mph - N/A   Overcast
12:55 PM 64.4 °F - N/A% 30.17 in 10.0 mi NE 6.9 mph - N/A   Overcast
1:15 PM 62.6 °F - N/A% 30.16 in 10.0 mi NE 12.7 mph 17.3 mph N/A   Overcast
1:35 PM 64.4 °F - N/A% 30.15 in 10.0 mi NE 11.5 mph 16.1 mph N/A   Overcast
1:53 PM 64.0 °F 55.9 °F 75% 30.14 in - NE 9.2 mph 19.6 mph N/A   Unknown
1:55 PM 64.4 °F - N/A% 30.15 in 10.0 mi NE 11.5 mph 17.3 mph N/A   Overcast
2:15 PM 64.4 °F - N/A% 30.15 in 10.0 mi ENE 10.4 mph 16.1 mph N/A   Overcast
2:35 PM 68.0 °F - N/A% 30.14 in 10.0 mi East 8.1 mph 16.1 mph N/A   Overcast
2:53 PM 66.0 °F 55.9 °F 70% 30.13 in - NE 9.2 mph - N/A   Unknown
2:55 PM 66.2 °F - N/A% 30.14 in 10.0 mi ENE 10.4 mph - N/A   Overcast
3:15 PM 68.0 °F - N/A% 30.13 in 10.0 mi NE 8.1 mph 16.1 mph N/A   Overcast
3:35 PM 68.0 °F - N/A% 30.13 in 10.0 mi ENE 8.1 mph - N/A   Overcast
3:53 PM 66.9 °F 55.9 °F 68% 30.11 in - East 10.4 mph 17.3 mph N/A   Unknown
3:55 PM 68.0 °F - N/A% 30.12 in 10.0 mi ENE 8.1 mph 18.4 mph N/A   Overcast
4:15 PM 68.0 °F - N/A% 30.11 in 10.0 mi ENE 9.2 mph - N/A   Overcast
4:35 PM 68.0 °F - N/A% 30.11 in 10.0 mi ENE 5.8 mph - N/A   Overcast
4:53 PM 68.0 °F 55.9 °F 65% 30.10 in - NE 11.5 mph 16.1 mph N/A   Unknown
4:55 PM 68.0 °F - N/A% 30.11 in 10.0 mi NE 10.4 mph - N/A   Overcast
5:15 PM 68.0 °F - N/A% 30.11 in 10.0 mi ENE 5.8 mph - N/A   Overcast
5:35 PM 68.0 °F - N/A% 30.10 in 10.0 mi ENE 6.9 mph - N/A   Overcast
5:53 PM 66.9 °F 57.0 °F 70% 30.09 in - NE 5.8 mph - N/A   Unknown
5:55 PM 68.0 °F - N/A% 30.10 in 10.0 mi ENE 6.9 mph - N/A   Overcast
6:15 PM 68.0 °F - N/A% 30.11 in 10.0 mi ENE 6.9 mph - N/A   Overcast
6:35 PM 68.0 °F - N/A% 30.11 in 10.0 mi NE 8.1 mph - N/A   Overcast
6:53 PM 66.9 °F 57.0 °F 70% 30.10 in - NE 8.1 mph - N/A   Unknown
6:55 PM 68.0 °F - N/A% 30.11 in 10.0 mi NE 11.5 mph - N/A   Overcast
7:15 PM 68.0 °F - N/A% 30.10 in 10.0 mi ENE 4.6 mph - N/A   Overcast
7:35 PM 68.0 °F - N/A% 30.11 in 10.0 mi NE 3.5 mph - N/A   Overcast
7:53 PM 66.0 °F 57.0 °F 73% 30.10 in - Variable 4.6 mph - N/A   Unknown
7:55 PM 66.2 °F - N/A% 30.11 in 10.0 mi ENE 3.5 mph - N/A   Overcast
8:15 PM 66.2 °F - N/A% 30.11 in 10.0 mi Calm Calm - N/A   Mostly Cloudy
8:35 PM 64.4 °F - N/A% 30.12 in 10.0 mi Calm Calm - N/A   Scattered Clouds
8:53 PM 64.0 °F 57.0 °F 78% 30.12 in - NE 3.5 mph - N/A   Unknown
8:55 PM 64.4 °F - N/A% 30.13 in 10.0 mi ENE 3.5 mph - N/A   Mostly Cloudy
9:15 PM 64.4 °F - N/A% 30.13 in 10.0 mi East 3.5 mph - N/A   Mostly Cloudy
9:35 PM 62.6 °F - N/A% 30.13 in 10.0 mi Calm Calm - N/A   Scattered Clouds
9:53 PM 60.1 °F 55.9 °F 86% 30.13 in - Calm Calm - 0.01 in   Unknown
9:55 PM 60.8 °F - N/A% 30.14 in 10.0 mi Calm Calm - N/A   Clear
10:15 PM 60.8 °F - N/A% 30.15 in 10.0 mi Calm Calm - N/A   Clear
10:35 PM 60.8 °F - N/A% 30.15 in 10.0 mi Calm Calm - N/A   Clear
10:53 PM 57.9 °F 55.0 °F 90% 30.14 in - Calm Calm - N/A   Unknown
10:55 PM 59.0 °F - N/A% 30.16 in 10.0 mi Calm Calm - N/A   Clear
11:15 PM 59.0 °F - N/A% 30.15 in 7.0 mi Calm Calm - N/A   Clear
11:35 PM 59.0 °F - N/A% 30.16 in 7.0 mi Calm Calm - N/A   Clear
11:53 PM 55.9 °F 53.1 °F 90% 30.15 in - Calm Calm - N/A   Unknown
11:55 PM 55.4 °F - N/A% 30.16 in 10.0 mi Calm Calm - N/A   Clear